Flag for India Weather past 2 weeks in Mumbai, Maharashtra, India

Now
84 °F

Scattered clouds.


Feels Like: 94 °F
Forecast: 82 / 85 °F
Wind: 12 mph from Southwest

Location: Bombay / Santacruz

Current Time: Jul 6, 2015 at 7:14:35 AM

Latest Report: Jul 6, 2015 at 6:40 AM


Visibility: 2 mi

Pressure: 29.71 "Hg

Humidity: 79%

Dew point: 77 °F

Location of MumbaiLocation

Historic Weather in Mumbai — Graph

°F

Mumbai temperature yesterday

Maximum temperature yesterday: 90 °F (at 12:10 PM)
Minimum temperature yesterday: 84 °F (at 12:10 AM)
Average temperature yesterday: 86 °F

Past Weeks' High & Low Weather Summary

 TemperatureHumidityPressure
High90 °F (Jun 28, 2:40 PM)100% (Jun 21, 7:10 AM)29.86 "Hg (Jun 21, 7:10 AM)
Low79 °F (Jun 21, 5:40 AM)63% (Jul 3, 1:40 PM)29.42 "Hg (Jun 21, 5:10 PM)
Average85 °F81%29.69 "Hg
* Reported Jun 21 5:40 AM — Jul 6 5:40 AM, Mumbai, Weather by CustomWeather, © 2015

Note: Actual official high and low records may vary slightly from our data, if they occured in-between our weather recording intervals... More about our weather records

Advertising

Mumbai weather history for previous 24 hours

 ConditionsComfort  
Time TempWeatherWind HumidityBarometerVisibility
5:40 AM
Mon, Jul 6
84 °FPassing clouds.13 mph79%29.71 "Hg2 mi
5:10 AM84 °FPassing clouds.9 mph79%29.71 "Hg2 mi
4:40 AM84 °FPassing clouds.12 mph79%29.71 "Hg2 mi
4:10 AM84 °FPassing clouds.13 mph79%29.71 "Hg2 mi
3:40 AM84 °FPassing clouds.13 mph74%29.71 "Hg2 mi
3:10 AM84 °FPassing clouds.9 mph79%29.71 "Hg2 mi
2:40 AM84 °FPassing clouds.12 mph79%29.74 "Hg2 mi
2:10 AM84 °FPassing clouds.10 mph79%29.74 "Hg2 mi
1:40 AM86 °FPassing clouds.17 mph75%29.74 "Hg2 mi
1:10 AM84 °FPassing clouds.17 mph79%29.74 "Hg2 mi
12:40 AM84 °FPassing clouds.8 mph79%29.74 "Hg2 mi
12:10 AM84 °FPassing clouds.14 mph79%29.77 "Hg2 mi
11:40 PM
Sun, Jul 5
84 °FPassing clouds.10 mph79%29.77 "Hg2 mi
11:10 PM84 °FPassing clouds.12 mph79%29.77 "Hg2 mi
10:40 PM84 °FPassing clouds.9 mph79%29.77 "Hg2 mi
10:10 PM84 °FPassing clouds.10 mph79%29.74 "Hg2 mi
9:40 PM84 °FPassing clouds.8 mph79%29.74 "Hg2 mi
9:10 PM84 °FPassing clouds.9 mph79%29.74 "Hg2 mi
8:40 PM84 °FPassing clouds.9 mph79%29.74 "Hg2 mi
8:10 PM86 °FPassing clouds.13 mph75%29.74 "Hg2 mi
7:40 PM86 °FScattered clouds.13 mph75%29.74 "Hg2 mi
7:10 PM86 °FScattered clouds.15 mph75%29.74 "Hg2 mi
6:40 PM86 °FScattered clouds.16 mph75%29.74 "Hg3 mi
6:10 PM86 °FScattered clouds.14 mph75%29.74 "Hg3 mi
5:40 PM88 °FScattered clouds.15 mph70%29.74 "Hg3 mi
5:10 PM88 °FScattered clouds.15 mph70%29.74 "Hg3 mi
4:40 PM88 °FScattered clouds.17 mph70%29.74 "Hg3 mi
4:10 PM88 °FScattered clouds.14 mph70%29.74 "Hg3 mi
3:40 PM88 °FScattered clouds.17 mph70%29.74 "Hg3 mi
3:10 PM90 °FScattered clouds.13 mph63%29.74 "Hg3 mi
2:40 PM88 °FScattered clouds.16 mph75%29.74 "Hg3 mi
2:10 PM90 °FScattered clouds.14 mph67%29.77 "Hg3 mi
1:40 PM88 °FBroken clouds.15 mph70%29.77 "Hg3 mi
1:10 PM88 °FScattered clouds.15 mph70%29.77 "Hg3 mi
12:10 PM90 °FScattered clouds.12 mph63%29.80 "Hg4 mi
11:40 AM88 °FScattered clouds.13 mph70%29.80 "Hg4 mi
11:10 AM88 °FScattered clouds.12 mph70%29.80 "Hg4 mi
8:40 AM86 °FScattered clouds.12 mph75%29.77 "Hg2 mi
7:40 AM84 °FScattered clouds.13 mph79%29.77 "Hg2 mi
Weather by CustomWeather, © 2015

See weather overviewHow to use our weather pages